CAPE
0 0 0 0 0 0 0 0 0 0 0 0 0 0 0 0 0 0 0 0 0 0 0 0 0 0 0 0 0 0 0 0 0 0 0 0 0 0 0 0 0 0 3 3 359
0 0 0 0 0 0 0 0 0 0 0 0 0 0 0 0 0 0 0 0 0 0 0 0 0 0 0 0 0 0 0 0 0 0 0 0 0 0 0 0 0 0 0 0 0
0 0 0 0 0 0 0 0 0 0 0 0 0 0 0 0 0 0 0 0 0 0 0 0 0 0 0 0 0 0 0 0 0 0 0 0 0 0 0 0 0 0 1 0 0
0 0 0 0 0 0 0 0 0 0 0 0 0 0 0 0 0 0 0 0 0 0 0 0 0 0 0 0 0 0 0 0 0 0 0 0 0 0 0 0 0 0 0 0 1
0 0 0 0 0 0 0 0 0 0 0 0 0 0 0 0 0 0 0 0 0 0 0 0 0 0 0 0 0 0 0 0 0 0 0 0 0 0 0 0 0 0 0 0 1
0 0 0 0 0 0 0 0 0 0 0 0 0 0 0 0 0 0 0 0 0 0 0 0 0 0 0 0 0 0 0 0 0 0 0 0 0 0 0 0 0 0 0 0 0
0 0 0 0 0 0 0 0 0 0 0 0 0 0 0 0 0 0 0 0 0 0 0 0 0 0 0 0 0 0 0 0 0 0 0 0 0 0 0 0 0 0 0 0 0
0 0 0 0 0 0 0 0 0 0 0 0 0 0 0 0 0 0 0 0 0 0 0 0 0 0 0 0 0 0 0 0 0 0 0 0 0 0 0 0 0 0 0 0 0
0 0 0 0 0 0 0 0 0 0 0 0 0 0 0 0 0 0 0 0 0 0 0 0 0 0 0 0 0 0 0 0 0 0 0 0 0 0 0 0 0 0 0 0 0
0 0 0 0 0 0 0 0 0 0 0 0 0 0 0 0 0 0 0 0 0 0 0 0 0 0 0 0 0 0 0 0 0 0 0 0 0 0 0 0 0 0 0 0 0
0 0 0 0 0 0 0 0 0 0 0 0 0 0 0 0 0 0 0 0 0 0 0 0 0 0 0 0 0 0 0 0 0 0 0 0 0 0 0 0 0 0 0 0 0
0 0 0 0 0 0 0 0 0 0 0 0 0 0 0 0 0 0 0 0 0 0 0 0 0 0 0 0 0 0 0 0 0 0 0 0 0 0 0 0 0 0 0 0 0
0 0 0 0 0 0 0 0 0 0 0 0 0 0 0 0 0 0 0 0 0 0 0 0 0 0 0 0 0 0 0 0 0 0 0 0 0 0 0 0 0 0 0 0 0
0 0 0 0 0 0 0 0 0 0 0 0 0 0 0 0 0 0 0 0 0 0 0 0 0 0 0 0 0 0 0 0 0 0 0 0 0 0 0 0 0 0 0 0 0
0 0 0 0 0 0 0 0 0 0 0 0 0 0 0 0 0 0 0 0 0 0 0 0 0 0 0 0 0 0 0 0 0 0 0 0 0 0 0 0 0 0 0 0 0
0 0 0 0 0 0 0 0 0 0 0 0 0 0 0 0 0 0 0 0 0 0 0 0 0 0 0 0 0 0 0 0 0 0 0 0 0 0 0 0 0 0 0 0 0
0 0 0 0 0 0 0 0 0 0 0 0 0 0 0 0 0 0 0 0 0 0 0 0 0 0 0 0 0 0 0 0 0 0 0 0 0 0 0 0 0 0 0 0 0
0 0 0 0 0 0 0 0 0 0 0 0 0 0 0 0 0 0 0 0 0 0 0 0 0 0 0 0 0 0 0 0 0 0 0 0 0 0 0 0 0 0 0 0 0
0 0 0 0 0 0 0 0 0 0 0 0 0 0 0 0 0 0 0 0 0 0 0 0 0 0 0 0 0 0 0 0 0 0 0 0 0 0 0 0 0 0 0 0 0
0 0 0 0 0 0 0 0 0 0 0 0 0 0 0 0 0 0 0 0 0 0 0 0 0 0 0 0 0 0 0 0 0 0 0 0 0 0 0 0 0 0 0 0 0
0 0 0 0 0 0 0 0 0 0 0 0 0 0 0 0 0 0 0 0 0 0 0 0 0 0 0 0 0 0 0 0 0 0 0 0 0 0 0 0 0 0 0 0 0
0 0 0 0 0 0 0 0 0 0 0 0 0 0 0 0 0 0 0 0 0 0 0 0 0 0 0 0 0 0 0 0 0 0 0 0 0 0 0 0 0 0 0 0 0
0 0 0 0 0 0 0 0 0 0 0 0 0 0 0 0 0 0 0 0 0 0 0 0 0 0 0 0 0 0 0 0 0 0 0 0 0 0 0 0 0 0 0 0 0
0 0 0 0 0 0 0 0 0 0 0 0 0 0 0 0 0 0 0 0 0 0 0 0 0 0 0 0 0 0 0 0 0 0 0 0 0 0 0 0 0 0 0 0 0
0 0 0 0 0 0 0 0 0 0 0 0 0 0 0 0 0 0 0 0 0 0 0 0 0 0 0 0 0 0 0 0 0 0 0 0 0 0 0 0 0 0 0 0 0
0 0 0 0 0 0 0 0 0 0 0 0 0 0 0 0 0 0 0 0 0 0 0 0 0 0 0 0 0 0 0 0 0 0 0 0 0 0 0 0 0 0 0 0 0
0 0 0 0 0 0 0 0 0 0 0 0 0 0 0 0 0 0 0 0 0 0 0 0 0 0 0 0 0 0 0 0 0 0 0 0 0 0 0 0 0 0 0 0 0
CIN
0 0 0 0 0 0 0 0 0 0 0 0 0 0 0 0 0 0 0 0 0 0 0 0 0 0 0 0 0 0 0 0 0 0 0 0 0 0 0 0 0 -13 0 0 -29
0 0 0 0 0 0 0 0 0 0 0 0 0 0 0 0 0 0 0 0 0 0 0 0 0 0 0 0 0 0 0 0 0 0 0 0 0 0 0 0 0 0 0 0 0
0 0 0 0 0 0 0 0 0 0 0 0 0 0 0 0 0 0 0 0 0 0 0 0 0 0 0 0 0 0 0 0 0 0 0 0 0 0 0 0 0 0 0 0 0
0 0 0 0 0 0 0 0 0 0 0 0 0 0 0 0 0 0 0 0 0 0 0 0 0 0 0 0 0 0 0 0 0 0 0 0 0 0 0 0 0 0 0 0 0
0 0 0 0 0 0 0 0 0 0 0 0 0 0 0 0 0 0 0 0 0 0 0 0 0 0 0 0 0 0 0 0 0 0 0 0 0 0 0 0 0 0 0 0 0
0 0 0 0 0 0 0 0 0 0 0 0 0 0 0 0 0 0 0 0 0 0 0 0 0 0 0 0 0 0 0 0 0 0 0 0 0 0 0 0 0 0 0 0 0
0 0 0 0 0 0 0 0 0 0 0 0 0 0 0 0 0 0 0 0 0 0 0 0 0 0 0 0 0 0 0 0 0 0 0 0 0 0 0 0 0 0 0 0 0
0 0 0 0 0 0 0 0 0 0 0 0 0 0 0 0 0 0 0 0 0 0 0 0 0 0 0 0 0 0 0 0 0 0 0 0 0 0 0 0 0 0 0 0 0
0 0 0 0 0 0 0 0 0 0 0 0 0 0 0 0 0 0 0 0 0 0 0 0 0 0 0 0 0 0 0 0 0 0 0 0 0 0 0 0 0 0 0 0 0
0 0 0 0 0 0 0 0 0 0 0 0 0 0 0 0 0 0 0 0 0 0 0 0 0 0 0 0 0 0 0 0 0 0 0 0 0 0 0 0 0 0 0 0 0
0 0 0 0 0 0 0 0 0 0 0 0 0 0 0 0 0 0 0 0 0 0 0 0 0 0 0 0 0 0 0 0 0 0 0 0 0 0 0 0 0 0 0 0 0
0 0 0 0 0 0 0 0 0 0 0 0 0 0 0 0 0 0 0 0 0 0 0 0 0 0 0 0 0 0 0 0 0 0 0 0 0 0 0 0 0 0 0 0 0
0 0 0 0 0 0 0 0 0 0 0 0 0 0 0 0 0 0 0 0 0 0 0 0 0 0 0 0 0 0 0 0 0 0 0 0 0 0 0 0 0 0 0 0 0
0 0 0 0 0 0 0 0 0 0 0 0 0 0 0 0 0 0 0 0 0 0 0 0 0 0 0 0 0 0 0 0 0 0 0 0 0 0 0 0 0 0 0 0 0
0 0 0 0 0 0 0 0 0 0 0 0 0 0 0 0 0 0 0 0 0 0 0 0 0 0 0 0 0 0 0 0 0 0 0 0 0 0 0 0 0 0 0 0 0
0 0 0 0 0 0 0 0 0 0 0 0 0 0 0 0 0 0 0 0 0 0 0 0 0 0 0 0 0 0 0 0 0 0 0 0 0 0 0 0 0 0 0 0 0
0 0 0 0 0 0 0 0 0 0 0 0 0 0 0 0 0 0 0 0 0 0 0 0 0 0 0 0 0 0 0 0 0 0 0 0 0 0 0 0 0 0 0 0 0
0 0 0 0 0 0 0 0 0 0 0 0 0 0 0 0 0 0 0 0 0 0 0 0 0 0 0 0 0 0 0 0 0 0 0 0 0 0 0 0 0 0 0 0 0
0 0 0 0 0 0 0 0 0 0 0 0 0 0 0 0 0 0 0 0 0 0 0 0 0 0 0 0 0 0 0 0 0 0 0 0 0 0 0 0 0 0 0 0 0
0 0 0 0 0 0 0 0 0 0 0 0 0 0 0 0 0 0 0 0 0 0 0 0 0 0 0 0 0 0 0 0 0 0 0 0 0 0 0 0 0 0 0 0 0
0 0 0 0 0 0 0 0 0 0 0 0 0 0 0 0 0 0 0 0 0 0 0 0 0 0 0 0 0 0 0 0 0 0 0 0 0 0 0 0 0 0 0 0 0
0 0 0 0 0 0 0 0 0 0 0 0 0 0 0 0 0 0 0 0 0 0 0 0 0 0 0 0 0 0 0 0 0 0 0 0 0 0 0 0 0 0 0 0 0
0 0 0 0 0 0 0 0 0 0 0 0 0 0 0 0 0 0 0 0 0 0 0 0 0 0 0 0 0 0 0 0 0 0 0 0 0 0 0 0 0 0 0 0 0
0 0 0 0 0 0 0 0 0 0 0 0 0 0 0 0 0 0 0 0 0 0 0 0 0 0 0 0 0 0 0 0 0 0 0 0 0 0 0 0 0 0 0 0 0
0 0 0 0 0 0 0 0 0 0 0 0 0 0 0 0 0 0 0 0 0 0 0 0 0 0 0 0 0 0 0 0 0 0 0 0 0 0 0 0 0 0 0 0 0
0 0 0 0 0 0 0 0 0 0 0 0 0 0 0 0 0 0 0 0 0 0 0 0 0 0 0 0 0 0 0 0 0 0 0 0 0 0 0 0 0 0 0 0 0
0 0 0 0 0 0 0 0 0 0 0 0 0 0 0 0 0 0 0 0 0 0 0 0 0 0 0 0 0 0 0 0 0 0 0 0 0 0 0 0 0 0 0 0 0
Wind_Speed
16 17 18 19 20 21 21 20 18 14 11 10 9 9 11 8 10 30 29 25 17 15 14 27 27 24 24 23 22 19 18 22 22 22 21 26 25 23 21 19 18 20 21 27 25
16 17 18 19 19 19 20 17 16 15 13 12 13 11 11 14 21 30 30 26 18 9 28 26 26 27 26 24 22 21 19 20 22 21 21 25 24 21 20 22 23 26 24 25 23
18 18 19 19 20 19 17 16 15 15 16 16 16 18 19 20 20 28 26 27 18 32 24 20 19 22 30 26 25 22 20 21 23 22 20 20 24 21 20 21 23 27 27 26 24
18 18 18 19 19 17 16 16 15 15 16 17 18 21 22 21 20 23 25 7 32 32 30 27 24 25 27 30 26 24 24 23 22 21 18 19 17 22 20 18 20 22 22 23 24
17 18 18 19 18 17 16 16 16 16 17 17 20 22 20 22 24 15 29 28 29 31 31 26 31 27 28 25 26 26 24 24 25 23 19 19 20 17 20 16 19 21 22 21 21
17 18 18 18 18 17 16 17 16 17 18 17 20 21 20 22 17 25 27 27 31 32 29 29 25 25 28 26 26 23 22 25 26 25 21 20 20 16 21 17 21 21 21 20 20
17 18 18 18 18 17 17 18 17 17 18 17 19 19 25 24 19 29 28 24 28 26 26 26 27 27 24 25 23 22 24 19 27 27 22 20 21 22 24 18 20 20 20 19 20
18 18 18 19 19 19 18 18 17 16 16 17 15 20 22 20 19 29 28 21 26 22 21 22 24 26 27 22 22 24 25 28 25 28 21 20 19 22 25 20 21 20 19 19 19
19 19 19 20 20 20 18 17 17 17 16 16 17 17 21 20 25 25 26 22 15 18 19 20 23 29 31 27 29 32 31 30 23 27 23 23 18 21 24 22 21 20 19 19 18
20 20 20 20 21 20 20 18 17 17 18 17 17 18 22 23 20 25 24 20 17 17 21 24 25 32 37 36 36 33 30 29 27 24 23 22 20 20 22 22 21 20 19 19 20
20 21 20 21 20 20 18 17 16 17 18 17 18 19 21 19 18 28 22 19 19 23 24 27 34 35 32 33 28 27 29 29 23 20 22 18 17 18 21 21 21 21 20 20 21
20 21 21 21 19 19 17 16 15 13 16 18 19 20 20 22 23 30 28 22 27 27 21 25 35 29 27 32 31 27 29 29 22 19 19 17 15 17 18 20 19 21 20 20 21
20 21 21 20 19 18 17 15 15 16 16 17 18 20 21 22 23 28 25 21 23 27 29 29 27 24 27 33 35 32 31 28 23 20 17 17 18 15 16 18 20 21 22 21 21
19 20 21 20 17 17 17 16 17 17 15 19 19 19 21 19 21 23 23 20 20 21 22 25 23 27 29 30 33 33 28 25 23 25 24 21 20 15 14 16 19 21 22 22 22
18 20 19 18 15 16 17 18 18 16 19 17 17 17 20 20 18 25 24 22 21 21 19 23 24 27 29 28 29 30 23 21 23 22 22 22 21 18 15 13 14 22 23 23 23
16 19 19 16 16 16 17 18 17 17 19 15 17 19 18 21 20 19 21 21 18 18 23 21 19 22 25 24 24 25 25 22 23 22 25 21 22 18 14 12 12 13 23 23 24
14 17 17 16 16 16 16 17 19 17 16 15 17 19 18 19 18 17 16 20 18 20 23 21 22 19 24 24 25 33 31 31 32 30 26 19 18 15 14 13 12 11 14 22 25
15 15 16 15 14 16 16 18 22 17 14 14 17 19 19 19 17 15 14 16 18 18 21 24 24 23 23 24 26 31 30 34 34 31 25 18 19 15 15 14 12 10 12 19 25
13 16 16 15 15 15 17 22 21 17 14 12 17 20 19 17 15 13 14 14 15 18 21 23 20 17 21 22 24 27 32 24 27 26 26 21 16 15 16 12 9 11 14 14 19
17 18 17 14 15 16 18 22 19 14 13 13 17 16 17 11 12 13 12 12 13 15 15 17 20 17 18 20 22 25 22 29 28 31 29 22 19 17 14 20 17 14 13 13 13
18 21 16 14 14 18 22 20 19 14 13 13 14 13 12 9 10 11 12 11 12 14 15 17 18 19 17 19 21 23 24 23 24 25 28 25 21 15 13 20 17 14 12 12 11
20 28 17 13 20 21 22 18 15 14 14 14 12 13 9 8 10 11 11 10 11 12 15 15 17 19 17 15 18 19 20 21 25 26 22 22 17 14 12 16 20 16 11 12 8
27 25 19 19 28 26 21 20 18 15 15 12 11 11 10 7 13 10 10 11 10 11 13 14 17 19 19 17 17 17 17 18 21 21 21 24 20 14 11 8 11 18 5 6 6
26 30 27 26 25 25 21 22 20 18 16 13 13 11 10 9 10 9 9 10 9 10 11 13 14 15 15 16 15 16 15 13 17 21 21 16 15 12 9 5 2 3 4 10 9
30 34 28 29 29 25 23 21 20 19 17 13 17 13 9 12 10 9 7 9 8 8 10 12 16 14 9 7 9 8 10 9 10 13 17 20 17 11 8 6 6 9 13 15 13
34 32 27 28 24 24 24 25 21 20 15 18 19 12 9 11 10 8 5 6 6 7 8 10 14 17 17 13 12 10 9 6 6 7 4 5 6 9 14 15 12 10 14 15 13
32 29 27 27 26 25 27 24 21 16 19 18 13 12 11 11 9 11 9 9 6 7 5 9 13 17 18 15 15 14 13 9 12 11 12 15 14 15 15 15 12 9 8 8 10
Wind_Direction
324 325 329 333 332 336 341 335 329 310 284 269 253 219 235 231 79 9 359 6 47 299 35 19 28 34 37 33 33 30 28 12 3 356 351 352 345 349 347 335 329 315 304 295 289
324 325 328 329 324 324 336 323 321 314 292 284 287 272 264 291 43 2 350 330 332 296 23 38 39 36 36 35 35 36 28 19 13 6 356 354 355 348 338 327 312 299 305 302 297
333 323 328 321 324 318 312 318 306 313 311 309 317 332 332 358 11 351 328 330 340 350 37 47 46 44 31 38 35 34 29 17 9 6 2 357 358 353 336 321 320 302 294 298 294
329 322 324 322 318 304 306 313 298 299 310 314 324 345 1 24 2 12 322 53 14 10 23 42 44 40 36 31 36 37 30 26 15 13 12 6 12 360 350 334 332 318 313 302 293
319 318 319 320 312 303 304 301 297 291 307 315 326 337 17 5 8 56 16 30 23 20 29 42 34 39 35 38 39 36 32 30 24 22 25 15 16 13 359 355 347 329 316 303 295
308 314 319 315 309 304 306 316 298 306 311 302 326 3 11 8 65 23 22 26 18 24 41 42 46 43 39 38 38 38 36 31 26 23 27 19 6 2 359 356 346 330 314 304 294
306 305 316 317 309 303 305 313 310 306 308 307 333 12 16 22 55 1 22 32 20 42 50 49 46 44 38 35 42 39 30 30 20 18 23 21 2 354 345 357 346 331 313 302 293
306 302 311 315 311 296 299 304 295 290 291 305 303 32 25 53 52 21 24 41 20 46 57 50 47 44 38 41 40 31 29 19 21 19 25 22 14 10 352 359 347 337 317 305 296
311 301 307 309 307 302 295 293 297 295 298 292 340 20 28 38 27 33 26 43 62 59 57 50 49 41 31 29 26 24 17 17 19 20 21 22 24 15 359 349 343 339 317 306 301
319 304 307 303 302 301 297 306 309 313 311 332 342 14 19 14 41 22 27 45 61 56 53 47 44 33 30 26 18 17 20 18 20 22 28 29 29 23 15 349 337 335 322 308 301
323 315 310 303 303 305 315 324 342 338 346 5 7 28 19 39 48 1 32 53 52 44 39 44 28 26 29 27 29 27 25 22 23 37 33 40 38 34 27 353 329 333 329 312 304
317 320 317 305 303 305 337 345 357 353 6 352 13 20 26 26 27 352 16 40 35 33 51 37 23 33 33 27 27 30 28 27 38 44 41 46 47 55 57 19 340 347 337 323 313
317 317 316 316 313 335 356 358 328 335 346 348 1 8 13 11 26 16 30 43 41 35 36 34 32 37 35 28 25 30 30 31 38 37 57 49 53 70 74 64 5 5 21 331 322
323 309 313 310 329 333 333 339 324 338 341 327 343 358 9 22 22 31 32 45 44 47 46 39 41 34 33 32 28 28 34 37 41 42 45 47 47 69 79 72 34 353 9 332 323
320 305 311 327 330 329 327 330 331 343 320 340 353 9 11 17 31 9 25 38 49 49 51 38 39 34 32 32 32 31 33 44 45 47 47 50 48 60 78 75 67 1 348 340 330
319 316 305 318 325 329 331 327 331 329 310 343 349 350 3 358 18 30 32 34 58 56 47 49 57 45 36 36 39 32 40 47 46 47 42 47 46 55 62 66 65 60 345 346 340
313 316 314 313 315 325 326 317 316 315 330 338 337 343 354 4 25 42 57 49 51 38 30 41 41 50 40 37 39 33 37 33 34 36 37 48 52 58 63 67 64 69 52 356 338
302 310 320 321 335 324 322 316 298 316 324 339 340 339 341 355 23 49 56 47 55 54 35 22 25 40 38 40 32 33 39 34 30 33 35 48 47 55 60 63 73 78 66 21 343
293 300 306 318 325 327 315 296 298 312 328 337 334 327 330 348 23 50 53 54 59 54 31 25 33 53 44 41 39 33 33 45 41 42 41 47 55 53 53 61 70 70 62 65 38
280 288 298 315 320 309 305 296 304 316 328 333 323 332 334 16 36 46 51 64 61 57 62 46 30 48 49 45 42 39 48 34 38 33 35 41 46 49 50 38 52 64 70 76 72
272 278 295 310 310 299 291 296 300 308 320 327 325 333 355 23 39 45 42 65 72 54 60 48 40 34 51 42 36 35 39 43 43 42 35 35 42 59 59 30 45 67 80 76 74
265 267 292 299 284 291 286 296 305 302 309 321 329 331 354 30 24 31 40 56 80 72 39 51 36 27 37 49 41 42 40 43 36 34 39 38 43 62 69 48 21 46 77 74 239
259 269 285 283 273 275 288 290 295 295 295 308 316 326 346 18 360 32 49 58 84 60 46 50 30 24 27 40 39 34 41 45 43 42 38 36 35 57 66 77 48 14 102 96 242
258 261 269 269 279 273 275 282 284 290 292 301 308 318 330 342 3 21 34 49 94 73 65 56 33 26 25 25 37 26 31 46 41 37 37 35 29 40 41 44 85 203 169 52 64
256 262 264 264 264 267 267 276 274 279 287 287 293 295 307 318 337 350 31 32 64 73 58 46 16 23 26 24 19 22 22 38 44 44 38 36 36 26 32 65 82 77 40 37 48
250 259 262 268 264 253 259 265 265 274 271 275 283 271 288 306 325 347 34 42 43 64 61 46 18 14 10 34 33 17 18 36 43 41 27 16 2 56 65 70 71 78 46 32 50
246 257 263 265 259 247 253 261 263 262 269 280 265 279 276 296 327 350 5 17 55 42 53 28 20 13 6 25 14 17 37 50 39 50 52 45 57 60 61 63 68 81 101 92 71